SPALA EPWA-EPLL

Flight info

Callsign SPALA
Flight time 0h 20m
Altitude 22000
Route SOXER7G SOXER SOXER2T
Aircraft HDJT/L-SABDGRWY/H

Departure

Time 2026-04-26 19:41
Airport Warsaw Chopin Airport (EPWA)

Arrival

Time 2026-04-26 20:02
Airport Łódź Władysław Reymont Airport (EPLL)
Time Latitude Longitude Altitude Speed Heading
2026-04-26 19:17 52.15207 20.98486 331 ft 0 kts 62°
2026-04-26 19:29 52.15208 20.98487 333 ft 1 kts 20°
2026-04-26 19:29 52.15202 20.98451 331 ft 12 kts 222°
2026-04-26 19:30 52.15165 20.98343 333 ft 1 kts 299°
2026-04-26 19:30 52.15188 20.98320 332 ft 8 kts 334°
2026-04-26 19:30 52.15286 20.98236 333 ft 23 kts 332°
2026-04-26 19:30 52.15383 20.98151 333 ft 22 kts 331°
2026-04-26 19:31 52.15555 20.98001 333 ft 21 kts 332°
2026-04-26 19:31 52.15650 20.97963 331 ft 6 kts 76°
2026-04-26 19:31 52.15670 20.98055 333 ft 10 kts 27°
2026-04-26 19:31 52.15781 20.98137 333 ft 21 kts 25°
2026-04-26 19:32 52.15900 20.98226 331 ft 17 kts 24°
2026-04-26 19:32 52.16018 20.98313 333 ft 23 kts 24°
2026-04-26 19:32 52.16152 20.98412 331 ft 13 kts 24°
2026-04-26 19:32 52.16158 20.98416 330 ft 0 kts 24°
2026-04-26 19:33 52.16160 20.98417 330 ft 2 kts
2026-04-26 19:33 52.16159 20.98405 332 ft 7 kts 211°
2026-04-26 19:33 52.16126 20.98336 332 ft 12 kts 272°
2026-04-26 19:33 52.16150 20.98227 332 ft 0 kts 295°
2026-04-26 19:41 52.16160 20.98193 338 ft 18 kts 295°
2026-04-26 19:41 52.16325 20.97615 331 ft 100 kts 295°
2026-04-26 19:41 52.16716 20.96309 683 ft 146 kts 299°
2026-04-26 19:41 52.17052 20.95211 1032 ft 175 kts 300°
2026-04-26 19:42 52.17792 20.92689 1264 ft 190 kts 294°
2026-04-26 19:42 52.18225 20.90673 1173 ft 192 kts 286°
2026-04-26 19:42 52.18200 20.88486 1447 ft 197 kts 268°
2026-04-26 19:42 52.18058 20.86258 1713 ft 203 kts 271°
2026-04-26 19:43 52.17965 20.83943 2113 ft 203 kts 276°
2026-04-26 19:43 52.18181 20.81735 2690 ft 200 kts 291°
2026-04-26 19:43 52.18512 20.79529 3223 ft 200 kts 288°
2026-04-26 19:43 52.18806 20.77310 3741 ft 200 kts 288°
2026-04-26 19:44 52.19019 20.75062 4266 ft 206 kts 272°
2026-04-26 19:44 52.18627 20.72765 4803 ft 213 kts 257°
2026-04-26 19:44 52.18201 20.70465 5331 ft 212 kts 261°
2026-04-26 19:44 52.17819 20.68154 5852 ft 216 kts 260°
2026-04-26 19:45 52.17403 20.65790 6384 ft 219 kts 259°
2026-04-26 19:45 52.16978 20.63393 6903 ft 222 kts 260°
2026-04-26 19:45 52.16547 20.60964 7415 ft 222 kts 260°
2026-04-26 19:45 52.16123 20.58562 7933 ft 223 kts 260°
2026-04-26 19:46 52.15692 20.56135 8458 ft 224 kts 260°
2026-04-26 19:46 52.15259 20.53693 8986 ft 225 kts 261°
2026-04-26 19:46 52.14822 20.51238 9531 ft 227 kts 261°
2026-04-26 19:46 52.14382 20.48768 10086 ft 228 kts 261°
2026-04-26 19:47 52.13941 20.46291 10584 ft 229 kts 261°
2026-04-26 19:47 52.13642 20.44593 10914 ft 243 kts 262°
2026-04-26 19:47 52.12979 20.40828 11613 ft 273 kts 261°
2026-04-26 19:47 52.12431 20.37812 12134 ft 290 kts 261°
2026-04-26 19:48 52.11850 20.34583 12676 ft 303 kts 262°
2026-04-26 19:48 52.11254 20.31277 13212 ft 303 kts 262°
2026-04-26 19:48 52.10655 20.28010 13742 ft 301 kts 262°
2026-04-26 19:48 52.10071 20.24718 14256 ft 304 kts 263°
2026-04-26 19:49 52.09476 20.21411 14734 ft 306 kts 263°
2026-04-26 19:49 52.08868 20.18081 15149 ft 310 kts 263°
2026-04-26 19:49 52.08255 20.14672 14983 ft 314 kts 263°
2026-04-26 19:49 52.07636 20.11310 14734 ft 313 kts 262°
2026-04-26 19:50 52.07031 20.08009 14489 ft 301 kts 263°
2026-04-26 19:50 52.06444 20.04788 14134 ft 289 kts 263°
2026-04-26 19:50 52.05879 20.01687 13723 ft 286 kts 263°
2026-04-26 19:50 52.05325 19.98645 13311 ft 285 kts 261°
2026-04-26 19:51 52.04500 19.95670 12910 ft 293 kts 248°
2026-04-26 19:51 52.03345 19.92975 12756 ft 284 kts 237°
2026-04-26 19:51 52.01987 19.90775 12372 ft 272 kts 229°
2026-04-26 19:51 52.00464 19.88954 11970 ft 271 kts 224°
2026-04-26 19:52 51.98938 19.87202 11584 ft 267 kts 225°
2026-04-26 19:52 51.97457 19.85423 11088 ft 265 kts 225°
2026-04-26 19:52 51.95962 19.83681 10586 ft 264 kts 224°
2026-04-26 19:52 51.94489 19.81993 10110 ft 262 kts 224°
2026-04-26 19:53 51.93010 19.80272 9569 ft 261 kts 224°
2026-04-26 19:53 51.91538 19.78560 9042 ft 260 kts 224°
2026-04-26 19:53 51.90075 19.76872 8517 ft 251 kts 223°
2026-04-26 19:53 51.88689 19.75284 8000 ft 241 kts 224°
2026-04-26 19:54 51.87347 19.73714 7486 ft 237 kts 224°
2026-04-26 19:54 51.86014 19.72167 6984 ft 235 kts 223°
2026-04-26 19:54 51.84735 19.70707 6482 ft 219 kts 223°
2026-04-26 19:54 51.83506 19.69282 5949 ft 216 kts 224°
2026-04-26 19:55 51.82294 19.67866 5433 ft 214 kts 225°
2026-04-26 19:55 51.81116 19.66470 4928 ft 208 kts 224°
2026-04-26 19:55 51.79986 19.65198 4402 ft 189 kts 225°
2026-04-26 19:55 51.78942 19.64015 3877 ft 177 kts 225°
2026-04-26 19:56 51.78013 19.62899 3463 ft 156 kts 234°
2026-04-26 19:56 51.77359 19.61653 3344 ft 136 kts 245°
2026-04-26 19:56 51.76949 19.60451 3173 ft 110 kts 253°
2026-04-26 19:56 51.76616 19.59409 3021 ft 102 kts 253°
2026-04-26 19:57 51.76295 19.58399 2720 ft 101 kts 253°
2026-04-26 19:57 51.75994 19.57402 2393 ft 97 kts 259°
2026-04-26 19:57 51.75792 19.56431 2316 ft 82 kts 259°
2026-04-26 19:57 51.75609 19.55573 2321 ft 81 kts 261°
2026-04-26 19:58 51.75423 19.54708 2324 ft 82 kts 261°
2026-04-26 19:58 51.75235 19.53822 2339 ft 86 kts 261°
2026-04-26 19:58 51.75042 19.52932 2333 ft 84 kts 261°
2026-04-26 19:58 51.74850 19.52051 2337 ft 85 kts 261°
2026-04-26 19:59 51.74656 19.51160 2336 ft 84 kts 261°
2026-04-26 19:59 51.74465 19.50282 2333 ft 84 kts 261°
2026-04-26 19:59 51.74269 19.49377 2258 ft 85 kts 261°
2026-04-26 19:59 51.74075 19.48479 2146 ft 85 kts 261°
2026-04-26 20:00 51.73872 19.47560 1991 ft 91 kts 259°
2026-04-26 20:00 51.73654 19.46580 1740 ft 96 kts 257°
2026-04-26 20:00 51.73425 19.45532 1463 ft 99 kts 256°
2026-04-26 20:00 51.73206 19.44449 1209 ft 102 kts 253°
2026-04-26 20:01 51.72978 19.43350 1037 ft 105 kts 253°
2026-04-26 20:01 51.72735 19.42239 888 ft 106 kts 250°
2026-04-26 20:01 51.72474 19.41119 731 ft 107 kts 250°
2026-04-26 20:01 51.72229 19.39993 601 ft 100 kts 248°
2026-04-26 20:02 51.72031 19.39099 586 ft 70 kts 249°
2026-04-26 20:02 51.71953 19.38729 583 ft 7 kts 328°
2026-04-26 20:02 51.71962 19.38764 583 ft 13 kts 85°
2026-04-26 20:02 51.71994 19.38931 583 ft 32 kts 70°
2026-04-26 20:03 51.72088 19.39358 586 ft 35 kts 71°
2026-04-26 20:03 51.72176 19.39760 591 ft 38 kts 70°
2026-04-26 20:03 51.72254 19.40121 602 ft 31 kts 70°
2026-04-26 20:03 51.72324 19.40438 606 ft 30 kts 70°
2026-04-26 20:04 51.72389 19.40596 608 ft 7 kts 352°
2026-04-26 20:04 51.72466 19.40552 613 ft 14 kts 338°
2026-04-26 20:04 51.72537 19.40479 610 ft 11 kts 315°
2026-04-26 20:04 51.72588 19.40404 610 ft 11 kts 336°
2026-04-26 20:05 51.72641 19.40390 610 ft 5 kts 47°
2026-04-26 20:05 51.72647 19.40422 612 ft 2 kts 148°
2026-04-26 20:05 51.72641 19.40414 615 ft 0 kts 242°